Leesburg, FL

3:59 PM EST on December 15, 2019 (GMT -0500)
Leesburg Regional

Weather History for KLEE - October, 2019

Change the Weather History Date:

Thursday, October 17, 2019

  Actual Average Record
Temperature  
Mean Temperature 76 °F -  
Max Temperature 84 °F 83 °F 91 °F (2007)
Min Temperature 70 °F 64 °F 48 °F (1991)
Cooling Degree Days 12    
Growing Degree Days 26 (Base 50)    
Moisture  
Dew Point 65 °F    
Average Humidity 71    
Maximum Humidity 88    
Minimum Humidity 53    
Precipitation  
Precipitation 0.00 in - - ()
Sea Level Pressure  
Sea Level Pressure 29.93 in    
Wind  
Wind Speed 5 mph (NW)    
Max Wind Speed 9 mph    
Max Gust Speed -    
Visibility 10 miles    
Events      
Averages and records for this station are not official NWS values.
T = Trace of Precipitation, MM = Missing Value Source: NWS Daily Summary

Daily Weather History Graph

Daily Weather History Graph

Search for Another Location

Airport or City:

Astronomy

Oct. 17, 2019 Rise Set
Actual Time 7:29 AM EDT 6:55 PM EDT
Civil Twilight 7:05 AM EDT 7:19 PM EDT
Nautical Twilight 6:37 AM EDT 7:46 PM EDT
Astronomical Twilight 6:10 AM EDT 8:14 PM EDT
Moon 9:41 PM EDT (10/17) 10:46 AM EDT (10/17)
Length of Visible Light 12h 13m
Length of Day
11h 26m
Waning Gibbous, 87% of the Moon is Illuminated
Oct 17
Waning Gibbous
Oct 21
Last Quarter
Oct 27
New
Nov 4
First Quarter
Nov 12
Full

Hourly Weather History & Observations

Time (EDT) Temp. Heat Index Dew Point Humidity Pressure Visibility Wind Dir Wind Speed Gust Speed Precip Events Conditions
12:53 AM 77.0 °F - 73.0 °F 88% 29.91 in 10.0 mi WNW 5.8 mph - N/A   Clear
1:53 AM 75.9 °F - 71.1 °F 85% 29.91 in 10.0 mi WNW 4.6 mph - N/A   Scattered Clouds
2:53 AM 75.0 °F - 71.1 °F 87% 29.90 in 10.0 mi WNW 5.8 mph - N/A   Clear
3:53 AM 73.9 °F - 70.0 °F 87% 29.89 in 10.0 mi NW 5.8 mph - N/A   Clear
4:53 AM 73.0 °F - 69.1 °F 87% 29.89 in 10.0 mi WNW 3.5 mph - N/A   Clear
5:53 AM 73.0 °F - 68.0 °F 84% 29.90 in 10.0 mi NNW 6.9 mph - N/A   Partly Cloudy
6:53 AM 71.1 °F - 66.9 °F 87% 29.91 in 10.0 mi North 6.9 mph - N/A   Clear
7:53 AM 71.1 °F - 66.0 °F 84% 29.94 in 10.0 mi North 4.6 mph - N/A   Clear
8:53 AM 72.0 °F - 64.9 °F 78% 29.96 in 10.0 mi North 9.2 mph - N/A   Clear
9:53 AM 73.9 °F - 64.0 °F 71% 29.99 in 10.0 mi North 6.9 mph - N/A   Clear
10:53 AM 75.9 °F - 64.0 °F 67% 29.98 in 10.0 mi Calm Calm - N/A   Clear
11:53 AM 77.0 °F - 64.9 °F 66% 29.96 in 10.0 mi Calm Calm - N/A   Clear
12:53 PM 79.0 °F - 66.0 °F 64% 29.96 in 10.0 mi Variable 4.6 mph - N/A   Clear
1:53 PM 81.0 °F 83.0 °F 66.0 °F 60% 29.94 in 10.0 mi Calm Calm - N/A   Clear
2:53 PM 81.0 °F 82.7 °F 64.9 °F 58% 29.92 in 10.0 mi Variable 4.6 mph - N/A   Clear
3:53 PM 82.9 °F 84.4 °F 64.0 °F 53% 29.90 in 10.0 mi West 9.2 mph - N/A   Clear
4:53 PM 82.0 °F 83.4 °F 64.0 °F 54% 29.91 in 10.0 mi NW 4.6 mph - N/A   Clear
5:53 PM 81.0 °F 83.0 °F 66.0 °F 60% 29.90 in 10.0 mi West 6.9 mph - N/A   Clear
6:53 PM 79.0 °F - 63.0 °F 58% 29.89 in 10.0 mi West 4.6 mph - N/A   Clear
7:53 PM 75.9 °F - 63.0 °F 64% 29.91 in 10.0 mi WNW 4.6 mph - N/A   Clear
8:53 PM 73.9 °F - 62.1 °F 66% 29.93 in 10.0 mi North 4.6 mph - N/A   Clear
9:53 PM 73.0 °F - 61.0 °F 66% 29.94 in 10.0 mi North 3.5 mph - N/A   Clear
10:53 PM 71.1 °F - 61.0 °F 70% 29.96 in 10.0 mi Calm Calm - N/A   Clear
11:53 PM 70.0 °F - 57.9 °F 65% 29.97 in 10.0 mi Calm Calm - N/A   Clear